Location: Erfurt
(50.9830°N, 11.0330°E)
Time: 04:11:38
(UTC+02:00)

ISS - Visible Passes

Search period start: 23 July 2018 00:00
Search period end: 02 August 2018 00:00
Orbit: 402 x 408 km, 51.6° (Epoch: 23 July)

Date Brightness Start Highest point End Pass type
(mag) Time Alt. Az. Time Alt. Az. Time Alt. Az.
23 Jul -3.9 01:15:49 10° W 01:19:08 85° NNE 01:20:53 25° E visible
23 Jul -1.8 02:52:23 10° W 02:53:22 17° W 02:53:22 17° W visible
23 Jul -3.9 22:47:10 10° WSW 22:50:27 74° SSE 22:53:44 10° ENE visible
24 Jul -3.8 00:23:41 10° W 00:26:59 78° N 00:29:11 19° E visible
24 Jul -2.3 02:00:13 10° W 02:01:47 25° W 02:01:47 25° W visible
24 Jul -3.7 21:55:10 10° SW 21:58:21 54° SSE 22:01:35 10° E visible
24 Jul -3.7 23:31:32 10° W 23:34:49 78° N 23:38:08 10° E visible
25 Jul -3.6 01:08:05 10° WNW 01:10:50 57° WSW 01:10:50 57° WSW visible
25 Jul -3.8 22:39:22 10° W 22:42:40 85° N 22:45:58 10° E visible
26 Jul -3.9 00:15:55 10° W 00:19:13 90° S 00:20:03 47° ESE visible
26 Jul -1.1 01:52:32 10° W 01:52:41 11° W 01:52:41 11° W visible
26 Jul -3.9 21:47:14 10° WSW 21:50:31 81° SSE 21:53:47 10° ENE visible
26 Jul -3.8 23:23:45 10° W 23:27:03 80° N 23:29:24 18° E visible
27 Jul -2.3 01:00:18 10° W 01:02:01 26° W 01:02:01 26° W visible
27 Jul -3.7 22:31:34 10° W 22:34:52 77° N 22:38:10 10° E visible
28 Jul -3.9 00:08:06 10° WNW 00:11:22 65° SSW 00:11:24 65° SSW visible
28 Jul -3.9 23:15:55 10° W 23:19:13 84° SSW 23:20:49 28° ESE visible
29 Jul -1.5 00:52:35 10° W 00:53:27 15° W 00:53:27 15° W visible
29 Jul -3.8 22:23:43 10° W 22:27:01 83° N 22:30:16 10° E visible
30 Jul -3.0 00:00:16 10° W 00:02:53 37° SW 00:02:53 37° SW visible
30 Jul -3.7 23:08:01 10° W 23:11:15 58° SSW 23:12:21 35° SE visible
31 Jul -3.9 22:15:48 10° WNW 22:19:04 78° SSW 22:21:50 14° ESE visible
31 Jul -2.1 23:52:33 10° W 23:54:29 21° WSW 23:54:29 21° WSW visible
01 Aug -3.0 23:00:08 10° W 23:03:10 35° SSW 23:03:59 30° S visible
